Regional Weather Roundup
Issued by NWS

Home | Current Version | Previous Version | Graphics & Text | Print | Product List | Glossary On
Versions: 1 2 3 4 5 6 7 8 9 10 11 12 13 14 15 16 17 18 19 20 21 22 23 24 25 26 27 28 29 30 31 32 33 34 35 36 37 38 39 40 41 42 43 44 45 46 47 48 49 50
398
ASUS43 KLMK 071702
RWRKY
KENTUCKY REGIONAL WEATHER ROUNDUP
NATIONAL WEATHER SERVICE LOUISVILLE KY
1200 PM EST SUN FEB 07 2016

NOTE "FAIR" INDICATES FEW OR NO CLOUDS BELOW 12,000 FEET
WITH NO SIGNIFICANT WEATHER AND/OR OBSTRUCTIONS TO VISIBILITY.

KYZ001>023-026-027-061>063-070>075-071800-
WESTERN AND SOUTH CENTRAL KENTUCKY

CITY           SKY/WX    TMP DP  RH WIND       PRES   REMARKS
PADUCAH        SUNNY     52  24  33 SW17      30.10F
HENDERSON      SUNNY     50  28  43 SW12G21   30.07F
OWENSBORO      SUNNY     53  31  43 SW15G21   30.09F
HOPKINSVILLE   SUNNY     51  23  33 SW13      30.13F
BOWLING GREEN  SUNNY     51  24  34 SW13      30.14F
GLASGOW        NOT AVBL
$$

KYZ024-025-028>034-038-045-046-053-071800-
NORTH CENTRAL KENTUCKY

CITY           SKY/WX    TMP DP  RH WIND       PRES   REMARKS
LOUISVILLE/SDF PTSUNNY   50  22  33 SW13      30.08F
LOUISVILLE/LOU CLOUDY    49  23  36 SW8       30.09F
FORT KNOX      MOSUNNY   49  24  38 SW15      30.07F
$$

KYZ035>037-039>044-047>052-055>060-089>105-071800-
NORTHEAST KENTUCKY

CITY           SKY/WX    TMP DP  RH WIND       PRES   REMARKS
LEXINGTON      CLOUDY    49  22  34 SW12      30.09F
COVINGTON      PTSUNNY   47  24  40 SW10      30.06F
FRANKFORT      MOSUNNY   49  20  31 SW15      30.09F
$$

KYZ054-064>069-076>088-106>120-071800-
SOUTHEAST KENTUCKY

CITY           SKY/WX    TMP DP  RH WIND       PRES   REMARKS
JACKSON        SUNNY     47  24  40 VRB5      30.12F
LONDON         SUNNY     46  22  38 SW6       30.14F
SOMERSET       NOT AVBL
MIDDLESBORO    NOT AVBL
MONTICELLO     SUNNY     50  23  34 W17       30.16F
$$





USA.gov is the U.S. government's official web portal to all federal, state and local government web resources and services.